UAL8443 KJFK-KMCO

Flight info

Callsign UAL8443
Flight time N/A
Altitude 40000
Route WAVEY EMJAY Q167 ZJAAY Q97 SAWED MOXXY Q85 LPERD SNFLD3
Aircraft B772/H-SDE2E3FGHIJ5LORVWXY/LB1D1

Departure

Time N/A
Airport John F. Kennedy International Airport (KJFK)

Arrival

Time 2026-05-05 02:22
Airport Orlando International Airport (KMCO)
Time Latitude Longitude Altitude Speed Heading
2026-05-05 01:07 35.47723 -77.87216 22441 ft 431 kts 221°
2026-05-05 01:07 35.45330 -77.89494 22461 ft 430 kts 221°
2026-05-05 01:08 35.42973 -77.91734 22464 ft 431 kts 221°
2026-05-05 01:08 35.40591 -77.93996 22474 ft 431 kts 221°
2026-05-05 01:08 35.38222 -77.96246 22483 ft 431 kts 221°
2026-05-05 01:08 35.35861 -77.98485 22489 ft 431 kts 221°
2026-05-05 01:09 35.33477 -78.00745 22490 ft 431 kts 221°
2026-05-05 01:09 35.31119 -78.02978 22506 ft 431 kts 221°
2026-05-05 01:09 35.28728 -78.05241 22511 ft 431 kts 221°
2026-05-05 01:09 35.26361 -78.07479 22510 ft 431 kts 221°
2026-05-05 01:10 35.24001 -78.09709 22528 ft 432 kts 221°
2026-05-05 01:10 35.21623 -78.11955 22543 ft 432 kts 221°
2026-05-05 01:10 35.19231 -78.14211 22738 ft 427 kts 221°
2026-05-05 01:10 35.16913 -78.16395 23126 ft 418 kts 221°
2026-05-05 01:11 35.14656 -78.18518 23584 ft 408 kts 221°
2026-05-05 01:11 35.12407 -78.20634 24095 ft 404 kts 221°
2026-05-05 01:11 35.10167 -78.22746 24618 ft 412 kts 221°
2026-05-05 01:11 35.07885 -78.24895 25144 ft 419 kts 221°
2026-05-05 01:12 35.05549 -78.27091 25670 ft 426 kts 221°
2026-05-05 01:12 35.03201 -78.29296 26191 ft 432 kts 221°
2026-05-05 01:12 35.00787 -78.31561 26720 ft 438 kts 221°
2026-05-05 01:12 34.98369 -78.33829 27242 ft 444 kts 221°
2026-05-05 01:13 34.95889 -78.36151 27778 ft 449 kts 221°
2026-05-05 01:13 34.93403 -78.38479 28309 ft 454 kts 221°
2026-05-05 01:13 34.90910 -78.40812 28847 ft 459 kts 221°
2026-05-05 01:13 34.88366 -78.43188 29386 ft 463 kts 221°
2026-05-05 01:14 34.85812 -78.45573 29926 ft 467 kts 221°
2026-05-05 01:14 34.83229 -78.47984 30463 ft 470 kts 221°
2026-05-05 01:14 34.80634 -78.50403 31000 ft 473 kts 221°
2026-05-05 01:14 34.78013 -78.52844 31532 ft 474 kts 221°
2026-05-05 01:15 34.75387 -78.55287 32064 ft 470 kts 221°
2026-05-05 01:15 34.72797 -78.57694 32597 ft 468 kts 222°
2026-05-05 01:15 34.70219 -78.60089 33124 ft 465 kts 222°
2026-05-05 01:15 34.67656 -78.62469 33656 ft 463 kts 222°
2026-05-05 01:16 34.65113 -78.64827 34189 ft 460 kts 222°
2026-05-05 01:16 34.62588 -78.67167 34697 ft 458 kts 221°
2026-05-05 01:16 34.60054 -78.69515 35154 ft 457 kts 221°
2026-05-05 01:16 34.57533 -78.71849 35604 ft 457 kts 221°
2026-05-05 01:17 34.55026 -78.74168 36049 ft 455 kts 221°
2026-05-05 01:17 34.52509 -78.76495 36523 ft 454 kts 221°
2026-05-05 01:17 34.49997 -78.78814 37117 ft 453 kts 221°
2026-05-05 01:17 34.47504 -78.81108 37636 ft 451 kts 221°
2026-05-05 01:18 34.45014 -78.83395 38145 ft 449 kts 221°
2026-05-05 01:18 34.42517 -78.85644 38665 ft 446 kts 220°
2026-05-05 01:18 34.39981 -78.87779 39165 ft 443 kts 219°
2026-05-05 01:18 34.37490 -78.89863 39645 ft 438 kts 219°
2026-05-05 01:19 34.34989 -78.91958 40004 ft 435 kts 220°
2026-05-05 01:19 34.32517 -78.94034 40062 ft 438 kts 220°
2026-05-05 01:19 34.27470 -78.98275 40058 ft 447 kts 219°
2026-05-05 01:20 34.22316 -79.02603 40057 ft 456 kts 219°
2026-05-05 01:20 34.17092 -79.06985 40062 ft 455 kts 219°
2026-05-05 01:21 34.11921 -79.11316 40061 ft 454 kts 219°
2026-05-05 01:21 34.06717 -79.15672 40066 ft 457 kts 220°
2026-05-05 01:22 34.01503 -79.20029 40085 ft 458 kts 219°
2026-05-05 01:22 33.96251 -79.24414 40075 ft 458 kts 220°
2026-05-05 01:23 33.91047 -79.28754 40070 ft 457 kts 220°
2026-05-05 01:23 33.85790 -79.33131 40060 ft 457 kts 220°
2026-05-05 01:24 33.80581 -79.37461 40072 ft 455 kts 220°
2026-05-05 01:24 33.75353 -79.41803 40068 ft 457 kts 220°
2026-05-05 01:25 33.70157 -79.46109 40070 ft 456 kts 220°
2026-05-05 01:25 33.64920 -79.50444 40069 ft 456 kts 220°
2026-05-05 01:26 33.59714 -79.54746 40074 ft 456 kts 220°
2026-05-05 01:26 33.54471 -79.59074 40064 ft 457 kts 220°
2026-05-05 01:27 33.49259 -79.63367 40065 ft 456 kts 220°
2026-05-05 01:27 33.44025 -79.67674 40091 ft 458 kts 219°
2026-05-05 01:28 33.38764 -79.71995 40085 ft 457 kts 219°
2026-05-05 01:28 33.33547 -79.76274 40089 ft 457 kts 219°
2026-05-05 01:29 33.28308 -79.80563 40100 ft 457 kts 220°
2026-05-05 01:29 33.23025 -79.84882 40084 ft 457 kts 220°
2026-05-05 01:30 33.17801 -79.89146 40083 ft 458 kts 220°
2026-05-05 01:30 33.12552 -79.93424 40090 ft 457 kts 220°
2026-05-05 01:31 33.07284 -79.97712 40095 ft 459 kts 220°
2026-05-05 01:31 33.02014 -80.01994 40094 ft 458 kts 220°
2026-05-05 01:32 32.96741 -80.06273 40094 ft 457 kts 220°
2026-05-05 01:32 32.91474 -80.10541 40087 ft 459 kts 220°
2026-05-05 01:33 32.86245 -80.14771 40098 ft 455 kts 220°
2026-05-05 01:33 32.80996 -80.19012 40086 ft 459 kts 220°
2026-05-05 01:34 32.75703 -80.23282 40089 ft 456 kts 220°
2026-05-05 01:34 32.70438 -80.27525 40068 ft 459 kts 220°
2026-05-05 01:35 32.65196 -80.31741 40086 ft 457 kts 220°
2026-05-05 01:35 32.59916 -80.35981 40076 ft 456 kts 220°
2026-05-05 01:36 32.54559 -80.40028 40083 ft 460 kts 216°
2026-05-05 01:36 32.48967 -80.43739 40076 ft 462 kts 216°
2026-05-05 01:37 32.43399 -80.47452 40076 ft 462 kts 217°
2026-05-05 01:37 32.37787 -80.51211 40085 ft 461 kts 217°
2026-05-05 01:38 32.32232 -80.54936 40080 ft 460 kts 217°
2026-05-05 01:38 32.26666 -80.58670 40082 ft 459 kts 217°
2026-05-05 01:39 32.21106 -80.62399 40085 ft 461 kts 217°
2026-05-05 01:39 32.15547 -80.66120 40094 ft 458 kts 217°
2026-05-05 01:40 32.10019 -80.69818 40095 ft 459 kts 217°
2026-05-05 01:40 32.04418 -80.73560 40096 ft 461 kts 217°
2026-05-05 01:41 31.98854 -80.77272 40102 ft 462 kts 217°
2026-05-05 01:41 31.93268 -80.80993 40095 ft 462 kts 217°
2026-05-05 01:42 31.87691 -80.84702 40094 ft 461 kts 217°
2026-05-05 01:42 31.82078 -80.88431 40091 ft 461 kts 217°
2026-05-05 01:43 31.76486 -80.92141 40093 ft 462 kts 217°
2026-05-05 01:43 31.70942 -80.95813 40091 ft 460 kts 217°
2026-05-05 01:44 31.65341 -80.99520 40098 ft 463 kts 217°
2026-05-05 01:44 31.59814 -81.03164 40093 ft 448 kts 217°
2026-05-05 01:45 31.54374 -81.06607 39792 ft 449 kts 216°
2026-05-05 01:45 31.51566 -81.08320 39480 ft 450 kts 216°
2026-05-05 01:45 31.48820 -81.09994 39186 ft 449 kts 216°
2026-05-05 01:46 31.46039 -81.11691 38900 ft 448 kts 216°
2026-05-05 01:46 31.43294 -81.13367 38651 ft 450 kts 216°
2026-05-05 01:46 31.40475 -81.15089 38395 ft 452 kts 216°
2026-05-05 01:46 31.37721 -81.16769 38142 ft 449 kts 216°
2026-05-05 01:47 31.34948 -81.18426 37891 ft 450 kts 215°
2026-05-05 01:47 31.32147 -81.20087 37633 ft 453 kts 216°
2026-05-05 01:47 31.29332 -81.21755 37372 ft 452 kts 215°
2026-05-05 01:47 31.26532 -81.23412 37107 ft 451 kts 216°
2026-05-05 01:48 31.23731 -81.25070 36841 ft 448 kts 215°
2026-05-05 01:48 31.20927 -81.26627 36344 ft 447 kts 210°
2026-05-05 01:48 31.17927 -81.27739 35383 ft 462 kts 202°
2026-05-05 01:48 31.14709 -81.28316 34189 ft 482 kts 192°
2026-05-05 01:49 31.11330 -81.28388 33121 ft 493 kts 188°
2026-05-05 01:49 31.07864 -81.28350 32203 ft 494 kts 187°
2026-05-05 01:49 31.04463 -81.28311 31440 ft 492 kts 187°
2026-05-05 01:49 31.01068 -81.28279 30697 ft 489 kts 187°
2026-05-05 01:50 30.97682 -81.28253 30169 ft 481 kts 187°
2026-05-05 01:50 30.94368 -81.28229 30073 ft 472 kts 187°
2026-05-05 01:50 30.87651 -81.28203 30063 ft 483 kts 187°
2026-05-05 01:51 30.80946 -81.28177 30077 ft 483 kts 187°
2026-05-05 01:51 30.74198 -81.28156 30068 ft 482 kts 187°
2026-05-05 01:52 30.67469 -81.28138 30067 ft 486 kts 187°
2026-05-05 01:52 30.60702 -81.28118 30063 ft 483 kts 187°
2026-05-05 01:53 30.53917 -81.27741 29736 ft 493 kts 183°
2026-05-05 01:53 30.50525 -81.27460 29274 ft 488 kts 183°
2026-05-05 01:53 30.47142 -81.27181 28976 ft 479 kts 183°
2026-05-05 01:54 30.43877 -81.26918 28750 ft 475 kts 183°
2026-05-05 01:54 30.40547 -81.26659 28508 ft 478 kts 183°
2026-05-05 01:54 30.37239 -81.26402 28253 ft 476 kts 183°
2026-05-05 01:54 30.33936 -81.26148 28000 ft 474 kts 183°
2026-05-05 01:55 30.30657 -81.25898 27754 ft 470 kts 183°
2026-05-05 01:55 30.27402 -81.25650 27485 ft 469 kts 183°
2026-05-05 01:55 30.24139 -81.25404 27227 ft 467 kts 183°
2026-05-05 01:55 30.20915 -81.25159 26983 ft 465 kts 182°
2026-05-05 01:56 30.17686 -81.24915 26726 ft 463 kts 183°
2026-05-05 01:56 30.14453 -81.24674 26475 ft 462 kts 182°
2026-05-05 01:56 30.11245 -81.24434 26223 ft 461 kts 182°
2026-05-05 01:56 30.08073 -81.24197 25972 ft 461 kts 182°
2026-05-05 01:57 30.04871 -81.23959 25726 ft 459 kts 182°
2026-05-05 01:57 30.01664 -81.23719 25468 ft 457 kts 182°
2026-05-05 01:57 29.98522 -81.23485 25223 ft 456 kts 182°
2026-05-05 01:57 29.95335 -81.23247 24984 ft 454 kts 182°
2026-05-05 01:58 29.92178 -81.23012 24733 ft 451 kts 182°
2026-05-05 01:58 29.89062 -81.22780 24490 ft 450 kts 182°
2026-05-05 01:58 29.85967 -81.22550 24231 ft 447 kts 182°
2026-05-05 01:58 29.82839 -81.22317 23995 ft 446 kts 181°
2026-05-05 01:59 29.79739 -81.22088 23753 ft 445 kts 181°
2026-05-05 01:59 29.76646 -81.21858 23506 ft 442 kts 181°
2026-05-05 01:59 29.73574 -81.21630 23269 ft 441 kts 181°
2026-05-05 01:59 29.70525 -81.21404 23080 ft 440 kts 181°
2026-05-05 02:00 29.67495 -81.21154 23057 ft 440 kts 181°
2026-05-05 02:00 29.64413 -81.20888 23067 ft 443 kts 181°
2026-05-05 02:00 29.61353 -81.20622 23049 ft 438 kts 181°
2026-05-05 02:00 29.58342 -81.20359 22672 ft 429 kts 181°
2026-05-05 02:01 29.55367 -81.20104 21829 ft 431 kts 180°
2026-05-05 02:01 29.52364 -81.19847 21054 ft 431 kts 180°
2026-05-05 02:01 29.49389 -81.19591 20421 ft 426 kts 180°
2026-05-05 02:01 29.46482 -81.19340 19969 ft 417 kts 180°
2026-05-05 02:02 29.43611 -81.19094 19602 ft 412 kts 180°
2026-05-05 02:02 29.40739 -81.18851 19256 ft 416 kts 180°
2026-05-05 02:02 29.37831 -81.18603 18885 ft 413 kts 179°
2026-05-05 02:02 29.34991 -81.18359 18525 ft 409 kts 179°
2026-05-05 02:03 29.32131 -81.18115 18168 ft 407 kts 179°
2026-05-05 02:03 29.29312 -81.17876 17814 ft 406 kts 179°
2026-05-05 02:03 29.26515 -81.17631 17469 ft 403 kts 179°
2026-05-05 02:03 29.23711 -81.17383 17103 ft 400 kts 179°
2026-05-05 02:04 29.20936 -81.17136 16703 ft 397 kts 178°
2026-05-05 02:04 29.18233 -81.16590 16341 ft 398 kts 167°
2026-05-05 02:04 29.15625 -81.15566 15991 ft 397 kts 162°
2026-05-05 02:04 29.13027 -81.14442 15644 ft 398 kts 161°
2026-05-05 02:05 29.10438 -81.13314 15295 ft 395 kts 161°
2026-05-05 02:05 29.07893 -81.12207 14947 ft 392 kts 161°
2026-05-05 02:05 29.05343 -81.11123 14601 ft 387 kts 163°
2026-05-05 02:05 29.02816 -81.10167 14264 ft 377 kts 163°
2026-05-05 02:06 29.00349 -81.09244 13941 ft 367 kts 163°
2026-05-05 02:06 28.97945 -81.08379 13617 ft 357 kts 168°
2026-05-05 02:06 28.95528 -81.07941 13311 ft 347 kts 175°
2026-05-05 02:06 28.93150 -81.07649 13007 ft 343 kts 175°
2026-05-05 02:07 28.90772 -81.07369 12710 ft 343 kts 176°
2026-05-05 02:07 28.88403 -81.07301 12400 ft 340 kts 189°
2026-05-05 02:07 28.86100 -81.07970 12100 ft 336 kts 200°
2026-05-05 02:07 28.83919 -81.08842 11805 ft 331 kts 201°
2026-05-05 02:08 28.81771 -81.09736 11516 ft 324 kts 202°
2026-05-05 02:08 28.79658 -81.10618 11233 ft 317 kts 202°
2026-05-05 02:08 28.77600 -81.11475 10952 ft 311 kts 202°
2026-05-05 02:08 28.75602 -81.12306 10683 ft 306 kts 202°
2026-05-05 02:09 28.73615 -81.13133 10415 ft 301 kts 202°
2026-05-05 02:09 28.71662 -81.13944 10150 ft 296 kts 202°
2026-05-05 02:09 28.69694 -81.14643 9891 ft 291 kts 196°
2026-05-05 02:09 28.67740 -81.15165 9650 ft 287 kts 195°
2026-05-05 02:10 28.65799 -81.15662 9408 ft 282 kts 194°
2026-05-05 02:10 28.63901 -81.16151 9172 ft 278 kts 195°
2026-05-05 02:10 28.62004 -81.16644 8936 ft 275 kts 194°
2026-05-05 02:10 28.60165 -81.17121 8706 ft 271 kts 195°
2026-05-05 02:11 28.58328 -81.17600 8479 ft 268 kts 194°
2026-05-05 02:11 28.56517 -81.18070 8255 ft 265 kts 194°
2026-05-05 02:11 28.54717 -81.18519 8023 ft 262 kts 190°
2026-05-05 02:11 28.52917 -81.18655 7768 ft 262 kts 182°
2026-05-05 02:12 28.51074 -81.18666 7437 ft 264 kts 181°
2026-05-05 02:12 28.47363 -81.18684 6788 ft 266 kts 182°
2026-05-05 02:12 28.45507 -81.18700 6471 ft 267 kts 181°
2026-05-05 02:13 28.43643 -81.18716 6140 ft 266 kts 181°
2026-05-05 02:13 28.41823 -81.18730 5843 ft 258 kts 181°
2026-05-05 02:13 28.40038 -81.18744 5749 ft 254 kts 180°
2026-05-05 02:13 28.38257 -81.18757 5608 ft 252 kts 180°
2026-05-05 02:14 28.36517 -81.18771 5460 ft 248 kts 180°
2026-05-05 02:14 28.34787 -81.18784 5311 ft 243 kts 179°
2026-05-05 02:14 28.33129 -81.18796 5168 ft 239 kts 179°
2026-05-05 02:14 28.31477 -81.18807 5027 ft 234 kts 179°
2026-05-05 02:15 28.29865 -81.18915 4884 ft 230 kts 194°
2026-05-05 02:15 28.28476 -81.19765 4750 ft 228 kts 224°
2026-05-05 02:15 28.27601 -81.21289 4628 ft 233 kts 243°
2026-05-05 02:15 28.26696 -81.22817 4495 ft 231 kts 226°
2026-05-05 02:16 28.25540 -81.24059 4370 ft 231 kts 219°
2026-05-05 02:16 28.24300 -81.25256 4244 ft 231 kts 218°
2026-05-05 02:16 28.23154 -81.26502 4111 ft 232 kts 236°
2026-05-05 02:16 28.22610 -81.28228 3971 ft 234 kts 266°
2026-05-05 02:17 28.22902 -81.30044 3657 ft 240 kts 298°
2026-05-05 02:17 28.23981 -81.31423 3359 ft 236 kts 329°
2026-05-05 02:17 28.25507 -81.31953 3058 ft 225 kts
2026-05-05 02:17 28.27012 -81.31743 2967 ft 209 kts 16°
2026-05-05 02:18 28.28345 -81.31210 2842 ft 200 kts 30°
2026-05-05 02:18 28.29585 -81.30476 2569 ft 199 kts 32°
2026-05-05 02:18 28.30801 -81.29741 2294 ft 197 kts 33°
2026-05-05 02:18 28.31985 -81.29027 2035 ft 183 kts 33°
2026-05-05 02:19 28.33058 -81.28382 1822 ft 167 kts 34°
2026-05-05 02:19 28.34135 -81.28044 1596 ft 164 kts
2026-05-05 02:19 28.35228 -81.28256 1390 ft 152 kts
2026-05-05 02:19 28.36283 -81.28266 1263 ft 151 kts
2026-05-05 02:20 28.37332 -81.28265 993 ft 152 kts
2026-05-05 02:20 28.38376 -81.28266 764 ft 147 kts
2026-05-05 02:20 28.39387 -81.28258 545 ft 141 kts
2026-05-05 02:20 28.40325 -81.28238 397 ft 127 kts
2026-05-05 02:21 28.41171 -81.28240 226 ft 121 kts
2026-05-05 02:21 28.42031 -81.28251 122 ft 124 kts
2026-05-05 02:21 28.42848 -81.28243 94 ft 102 kts
2026-05-05 02:21 28.43438 -81.28252 94 ft 66 kts
2026-05-05 02:22 28.43777 -81.28252 94 ft 30 kts 359°
2026-05-05 02:22 28.43885 -81.28253 94 ft 8 kts
2026-05-05 02:22 28.43991 -81.28253 94 ft 21 kts 359°
2026-05-05 02:22 28.44154 -81.28254 94 ft 15 kts
2026-05-05 02:23 28.44245 -81.28297 96 ft 13 kts 288°
2026-05-05 02:23 28.44199 -81.28381 95 ft 16 kts 186°
2026-05-05 02:23 28.44074 -81.28378 94 ft 19 kts 180°
2026-05-05 02:23 28.43934 -81.28377 94 ft 20 kts 179°
2026-05-05 02:24 28.43783 -81.28374 94 ft 22 kts 179°
2026-05-05 02:24 28.43625 -81.28373 94 ft 16 kts 179°
2026-05-05 02:24 28.43501 -81.28373 94 ft 19 kts 180°
2026-05-05 02:24 28.43358 -81.28372 94 ft 21 kts 179°
2026-05-05 02:25 28.43197 -81.28367 94 ft 24 kts 178°
2026-05-05 02:25 28.43047 -81.28367 92 ft 16 kts 180°
2026-05-05 02:25 28.42919 -81.28367 92 ft 19 kts 179°
2026-05-05 02:25 28.42773 -81.28365 93 ft 22 kts 178°
2026-05-05 02:26 28.42616 -81.28361 93 ft 22 kts 179°
2026-05-05 02:26 28.42531 -81.28374 93 ft 11 kts 214°
2026-05-05 02:26 28.42488 -81.28464 92 ft 15 kts 251°
2026-05-05 02:26 28.42447 -81.28598 91 ft 19 kts 250°
2026-05-05 02:27 28.42397 -81.28755 91 ft 22 kts 250°
2026-05-05 02:27 28.42340 -81.28933 91 ft 25 kts 250°
2026-05-05 02:27 28.42300 -81.29069 91 ft 11 kts 254°
2026-05-05 02:27 28.42287 -81.29169 91 ft 14 kts 265°
2026-05-05 02:28 28.42334 -81.29260 92 ft 14 kts 314°
2026-05-05 02:28 28.42367 -81.29373 93 ft 16 kts 266°
2026-05-05 02:28 28.42362 -81.29516 94 ft 19 kts 268°
2026-05-05 02:28 28.42364 -81.29679 94 ft 22 kts 272°
2026-05-05 02:29 28.42416 -81.29791 95 ft 17 kts 347°
2026-05-05 02:29 28.42538 -81.29793 94 ft 14 kts 359°
2026-05-05 02:29 28.42593 -81.29842 94 ft 11 kts 292°
2026-05-05 02:29 28.42667 -81.29890 94 ft 14 kts 357°
2026-05-05 02:30 28.42761 -81.29893 95 ft 8 kts 358°
2026-05-05 02:30 28.42786 -81.29894 95 ft 2 kts 358°
2026-05-05 02:30 28.42798 -81.29897 95 ft 3 kts 330°
2026-05-05 02:30 28.42820 -81.29929 95 ft 7 kts 293°
2026-05-05 02:31 28.42826 -81.29949 95 ft 1 kts 287°
2026-05-05 02:31 28.42829 -81.29958 95 ft 1 kts 291°
2026-05-05 02:31 28.42834 -81.29973 94 ft 2 kts 287°
2026-05-05 02:31 28.42837 -81.29985 94 ft 0 kts 287°